TimeAKST,TemperatureF,Dew PointF,Humidity,Sea Level PressureIn,VisibilityMPH,Wind Direction,Wind SpeedMPH,Gust SpeedMPH,PrecipitationIn,Events,Conditions,WindDirDegrees,DateUTC
12:13 AM,-16.6,-22.0,76,29.61,10.0,Calm,Calm,-,N/A,,Clear,0,2014-03-08 09:13:00
12:58 AM,-15.2,-20.9,75,29.66,10.0,Calm,Calm,-,N/A,,Clear,0,2014-03-08 09:58:00
1:43 AM,-18.4,-23.8,76,29.59,8.0,Calm,Calm,-,N/A,,Clear,0,2014-03-08 10:43:00
1:58 AM,-19.8,-25.8,74,29.65,10.0,Calm,Calm,-,N/A,,Clear,0,2014-03-08 10:58:00
2:58 AM,-24.3,-29.9,75,29.63,5.0,SE,2.3,-,N/A,,Haze,130,2014-03-08 11:58:00
3:13 AM,-22.0,-27.4,76,29.56,10.0,Calm,Calm,-,N/A,,Clear,0,2014-03-08 12:13:00
3:58 AM,-20.9,-27.0,73,29.62,10.0,Calm,Calm,-,N/A,,Clear,0,2014-03-08 12:58:00
4:58 AM,-26.3,-29.9,83,29.61,10.0,Calm,Calm,-,N/A,,Clear,0,2014-03-08 13:58:00
5:43 AM,-27.4,-29.2,91,29.55,5.0,Variable,3.5,-,N/A,,Clear,0,2014-03-08 14:43:00
5:58 AM,-25.1,-29.9,78,29.61,10.0,SSE,4.6,-,N/A,,Clear,160,2014-03-08 14:58:00
6:58 AM,-26.0,-29.9,81,29.60,5.0,SE,3.5,-,N/A,,Clear,130,2014-03-08 15:58:00
7:13 AM,-29.2,-29.2,100,29.53,10.0,Calm,Calm,-,N/A,,Clear,0,2014-03-08 16:13:00
7:58 AM,-23.3,-29.7,72,29.59,10.0,Calm,Calm,-,N/A,,Clear,0,2014-03-08 16:58:00
8:58 AM,-21.5,-27.8,73,29.57,10.0,SSE,4.6,-,N/A,,Clear,160,2014-03-08 17:58:00
9:58 AM,-14.8,-20.6,75,29.56,10.0,Calm,Calm,-,N/A,,Clear,0,2014-03-08 18:58:00
10:58 AM,-7.2,-12.6,77,29.54,10.0,Calm,Calm,-,N/A,,Clear,0,2014-03-08 19:58:00
11:58 AM,1.2,-3.6,80,29.53,10.0,Calm,Calm,-,N/A,,Clear,0,2014-03-08 20:58:00
12:58 PM,5.9,-8.1,53,29.51,10.0,Calm,Calm,-,N/A,,Clear,0,2014-03-08 21:58:00
1:58 PM,6.6,-4.7,60,29.49,10.0,Calm,Calm,-,N/A,,Clear,0,2014-03-08 22:58:00
2:58 PM,10.9,-8.5,41,29.47,10.0,NNW,3.5,-,N/A,,Clear,330,2014-03-08 23:58:00
3:58 PM,13.8,-7.8,38,29.45,10.0,ENE,11.5,-,N/A,,Clear,60,2014-03-09 00:58:00
4:58 PM,12.6,-8.9,38,29.44,10.0,NE,11.5,-,N/A,,Clear,40,2014-03-09 01:58:00
5:58 PM,9.5,-9.8,42,29.44,10.0,NE,16.1,-,N/A,,Clear,40,2014-03-09 02:58:00
6:58 PM,5.9,-11.0,46,29.44,10.0,NNE,13.8,-,N/A,,Clear,30,2014-03-09 03:58:00
7:58 PM,3.6,-12.5,47,29.44,10.0,NNE,15.0,-,N/A,,Clear,30,2014-03-09 04:58:00
8:58 PM,0.5,-13.0,53,29.44,10.0,North,9.2,-,N/A,,Clear,10,2014-03-09 05:58:00
9:58 PM,-1.8,-13.9,57,29.45,10.0,NNE,6.9,-,N/A,,Clear,20,2014-03-09 06:58:00
10:58 PM,-3.5,-14.6,59,29.45,10.0,NNE,8.1,-,N/A,,Clear,20,2014-03-09 07:58:00
11:58 PM,-1.5,-13.9,56,29.44,10.0,Variable,5.8,-,N/A,,Clear,0,2014-03-09 08:58:00